When you browse on this site, cookies collect data to enhance your experience and personalize the content and advertising you see.
Visit our Privacy Policy to learn more. By continuing to use the site, you agree to this use of cookies and data.
  • In Czech Republic
  • List of Countries
  • For 7 days
  • Water Temperature
  • Satellite Maps
  • Weather Map
  • Weather Widgets
  • user-avatar
    Login

    Hourly Weather Coleraine

    Today, 21 January, Monday

    Time Temperature Precipitation Wind Pressure Humidity
    00:00 +1°C° 0 mm 3 mps 766 mmHg 84%
    01:00 +1°C° 0 mm 3 mps 766 mmHg 85%
    02:00 +1°C° 0 mm 3 mps 765 mmHg 85%
    03:00 -1°C° 0 mm 4 mps 765 mmHg 86%
    04:00 0°C° 0 mm 4 mps 764 mmHg 85%
    05:00 0°C° 0 mm 5 mps 764 mmHg 84%
    06:00 0°C° 0 mm 5 mps 763 mmHg 83%
    07:00 -1°C° 0 mm 6 mps 762 mmHg 83%
    08:00 -1°C° 0 mm 6 mps 761 mmHg 82%
    09:00 0°C° 0 mm 7 mps 760 mmHg 81%
    10:00 0°C° 0 mm 8 mps 759 mmHg 80%
    11:00 +1°C° 0 mm 9 mps 757 mmHg 78%
    12:00 +2°C° 0 mm 9 mps 756 mmHg 77%
    13:00 +2°C° 0.4 mm 10 mps 754 mmHg 79%
    14:00 +2°C° 0.4 mm 10 mps 753 mmHg 82%
    15:00 +2°C° 0.4 mm 11 mps 751 mmHg 84%
    16:00 +2°C° 1.2 mm 10 mps 750 mmHg 83%
    17:00 +1°C° 1.2 mm 8 mps 750 mmHg 82%
    18:00 +2°C° 1.2 mm 7 mps 749 mmHg 81%
    19:00 0°C° 0 mm 7 mps 749 mmHg 81%
    20:00 -1°C° 0 mm 7 mps 749 mmHg 81%
    21:00 -2°C° 0 mm 7 mps 748 mmHg 82%
    22:00 -1°C° 0.3 mm 7 mps 748 mmHg 82%
    23:00 -1°C° 0.3 mm 7 mps 748 mmHg 82%

    Tomorrow, 22 January, Tuesday

    Time Temperature Precipitation Wind Pressure Humidity
    00:00 0°C° 0.3 mm 7 mps 748 mmHg 82%
    01:00 -1°C° 0.3 mm 7 mps 748 mmHg 81%
    02:00 -1°C° 0.3 mm 7 mps 748 mmHg 81%
    03:00 -2°C° 0.3 mm 6 mps 748 mmHg 80%
    04:00 -2°C° 0.2 mm 6 mps 748 mmHg 81%
    05:00 -2°C° 0.2 mm 6 mps 747 mmHg 82%
    06:00 -1°C° 0.2 mm 5 mps 747 mmHg 83%
    07:00 -2°C° 0.2 mm 6 mps 747 mmHg 82%
    08:00 -2°C° 0.2 mm 6 mps 748 mmHg 81%
    09:00 -2°C° 0.2 mm 6 mps 748 mmHg 79%
    10:00 -1°C° 0.2 mm 6 mps 748 mmHg 77%
    11:00 -1°C° 0.2 mm 6 mps 748 mmHg 75%
    12:00 +1°C° 0.2 mm 6 mps 748 mmHg 72%
    13:00 +1°C° 0.2 mm 6 mps 748 mmHg 73%
    14:00 +1°C° 0.2 mm 6 mps 748 mmHg 73%
    15:00 +1°C° 0.2 mm 6 mps 748 mmHg 74%
    16:00 -1°C° 0.1 mm 6 mps 748 mmHg 76%
    17:00 0°C° 0.1 mm 5 mps 748 mmHg 77%
    18:00 -1°C° 0.1 mm 5 mps 748 mmHg 79%
    19:00 -1°C° 0.1 mm 5 mps 749 mmHg 80%
    20:00 -1°C° 0.1 mm 5 mps 749 mmHg 80%
    21:00 -1°C° 0.1 mm 5 mps 749 mmHg 80%
    22:00 0°C° 0.1 mm 5 mps 750 mmHg 81%
    23:00 0°C° 0.1 mm 5 mps 750 mmHg 81%

    Day after tomorrow, 23 January, Wednesday

    Time Temperature Precipitation Wind Pressure Humidity
    00:00 0°C° 0.1 mm 5 mps 750 mmHg 81%
    01:00 0°C° 0.2 mm 4 mps 751 mmHg 81%
    02:00 0°C° 0.2 mm 4 mps 751 mmHg 81%
    03:00 0°C° 0.2 mm 4 mps 751 mmHg 81%
    04:00 0°C° 0 mm 4 mps 751 mmHg 82%
    05:00 0°C° 0 mm 3 mps 751 mmHg 83%
    06:00 0°C° 0 mm 3 mps 752 mmHg 84%
    07:00 0°C° 0 mm 3 mps 752 mmHg 85%
    08:00 0°C° 0 mm 3 mps 753 mmHg 86%
    09:00 0°C° 0 mm 3 mps 753 mmHg 87%
    10:00 +1°C° 0 mm 3 mps 754 mmHg 86%
    11:00 +2°C° 0 mm 3 mps 754 mmHg 85%
    12:00 +3°C° 0 mm 3 mps 754 mmHg 83%
    13:00 +3°C° 0.1 mm 3 mps 755 mmHg 86%
    14:00 +3°C° 0.1 mm 3 mps 755 mmHg 89%
    15:00 +3°C° 0.1 mm 3 mps 755 mmHg 92%
    16:00 +4°C° 0.1 mm 2 mps 755 mmHg 93%
    17:00 +4°C° 0.1 mm 2 mps 756 mmHg 94%
    18:00 +5°C° 0.1 mm 1 mps 756 mmHg 95%
    19:00 +4°C° 0 mm 2 mps 756 mmHg 96%
    20:00 +4°C° 0 mm 2 mps 757 mmHg 96%
    21:00 +4°C° 0 mm 2 mps 757 mmHg 97%
    22:00 +4°C° 0.2 mm 2 mps 757 mmHg 97%
    23:00 +3°C° 0.2 mm 3 mps 757 mmHg 97%

    24 January, Thursday

    Time Temperature Precipitation Wind Pressure Humidity
    00:00 +3°C° 0.2 mm 3 mps 757 mmHg 96%
    01:00 +3°C° 0.3 mm 4 mps 757 mmHg 96%
    02:00 +3°C° 0.3 mm 5 mps 757 mmHg 95%
    03:00 +3°C° 0.3 mm 6 mps 756 mmHg 95%
    04:00 +3°C° 1 mm 5 mps 756 mmHg 95%
    05:00 +3°C° 1 mm 5 mps 756 mmHg 96%
    06:00 +5°C° 1 mm 5 mps 756 mmHg 96%
    07:00 +6°C° 1.3 mm 5 mps 756 mmHg 96%
    08:00 +7°C° 1.3 mm 6 mps 756 mmHg 97%
    09:00 +8°C° 1.3 mm 6 mps 756 mmHg 97%
    10:00 +8°C° 0.1 mm 7 mps 756 mmHg 96%
    11:00 +9°C° 0.1 mm 7 mps 756 mmHg 95%
    12:00 +9°C° 0.1 mm 7 mps 757 mmHg 95%
    13:00 +9°C° 0.1 mm 7 mps 757 mmHg 95%
    14:00 +9°C° 0.1 mm 7 mps 757 mmHg 94%
    15:00 +9°C° 0.1 mm 7 mps 757 mmHg 94%
    16:00 +9°C° 0 mm 7 mps 757 mmHg 94%
    17:00 +9°C° 0 mm 7 mps 758 mmHg 94%
    18:00 +9°C° 0 mm 7 mps 758 mmHg 94%
    19:00 +8°C° 0 mm 6 mps 758 mmHg 94%
    20:00 +8°C° 0 mm 6 mps 758 mmHg 93%
    21:00 +8°C° 0 mm 6 mps 758 mmHg 93%
    22:00 +8°C° 0 mm 6 mps 758 mmHg 92%
    23:00 +8°C° 0 mm 6 mps 758 mmHg 92%

    25 January, Friday

    Time Temperature Precipitation Wind Pressure Humidity
    00:00 +8°C° 0 mm 6 mps 758 mmHg 92%
    01:00 +8°C° 0 mm 6 mps 757 mmHg 92%
    02:00 +8°C° 0 mm 7 mps 757 mmHg 92%
    03:00 +8°C° 0 mm 7 mps 757 mmHg 92%
    04:00 +8°C° 0.1 mm 7 mps 756 mmHg 92%
    05:00 +8°C° 0.1 mm 7 mps 756 mmHg 92%
    06:00 +9°C° 0.1 mm 7 mps 756 mmHg 92%
    07:00 +9°C° 0.6 mm 7 mps 756 mmHg 93%
    08:00 +9°C° 0.6 mm 7 mps 756 mmHg 93%
    09:00 +9°C° 0.6 mm 7 mps 756 mmHg 93%
    10:00 +8°C° 0.3 mm 7 mps 756 mmHg 91%
    11:00 +6°C° 0.3 mm 7 mps 757 mmHg 89%
    12:00 +5°C° 0.3 mm 6 mps 757 mmHg 87%
    13:00 +5°C° 0.1 mm 6 mps 757 mmHg 84%
    14:00 +5°C° 0.1 mm 6 mps 757 mmHg 82%
    15:00 +5°C° 0.1 mm 6 mps 757 mmHg 80%
    16:00 +4°C° 0 mm 6 mps 757 mmHg 81%
    17:00 +5°C° 0 mm 5 mps 757 mmHg 81%
    18:00 +3°C° 0 mm 5 mps 757 mmHg 82%
    19:00 +4°C° 0 mm 4 mps 756 mmHg 83%
    20:00 +4°C° 0 mm 4 mps 756 mmHg 84%
    21:00 +3°C° 0 mm 3 mps 756 mmHg 85%
    22:00 +3°C° 0.3 mm 3 mps 755 mmHg 86%
    23:00 +3°C° 0.3 mm 3 mps 755 mmHg 88%

    26 January, Saturday

    Time Temperature Precipitation Wind Pressure Humidity
    00:00 +4°C° 0.3 mm 2 mps 754 mmHg 89%
    01:00 +3°C° 1.2 mm 3 mps 754 mmHg 89%
    02:00 +3°C° 1.2 mm 3 mps 753 mmHg 90%
    03:00 +3°C° 1.2 mm 4 mps 752 mmHg 90%
    04:00 +3°C° 0.8 mm 4 mps 752 mmHg 88%
    05:00 +2°C° 0.8 mm 5 mps 751 mmHg 85%
    06:00 +2°C° 0.8 mm 5 mps 751 mmHg 83%
    07:00 +2°C° 0.3 mm 6 mps 751 mmHg 83%
    08:00 +2°C° 0.3 mm 7 mps 752 mmHg 82%
    09:00 +1°C° 0.3 mm 8 mps 752 mmHg 82%
    10:00 +1°C° 0.2 mm 9 mps 752 mmHg 79%
    11:00 +2°C° 0.2 mm 9 mps 752 mmHg 76%
    12:00 +2°C° 0.2 mm 9 mps 753 mmHg 73%
    13:00 +2°C° 0.2 mm 9 mps 752 mmHg 73%
    14:00 +1°C° 0.2 mm 9 mps 752 mmHg 72%
    15:00 +1°C° 0.2 mm 9 mps 752 mmHg 72%
    16:00 +1°C° 0.2 mm 9 mps 752 mmHg 73%
    17:00 0°C° 0.2 mm 8 mps 752 mmHg 74%
    18:00 0°C° 0.2 mm 8 mps 752 mmHg 75%
    19:00 0°C° 0.2 mm 8 mps 753 mmHg 75%
    20:00 0°C° 0.2 mm 7 mps 753 mmHg 76%
    21:00 0°C° 0.2 mm 7 mps 753 mmHg 76%
    22:00 +1°C° 0.3 mm 6 mps 753 mmHg 78%
    23:00 +1°C° 0.3 mm 6 mps 753 mmHg 80%
    Show more